Location: Chassagnes
(44.4047°N, 4.1657°E)
Time: 12:50:34
(UTC+00:00)

Cosmos 1812 Rocket - Pass Details

Date: 27 October 2020
Orbit: 605 x 633 km, 82.5° (Epoch: 23 November)

Event Time Altitude Azimuth Distance (km) Brightness Sun altitude
Rises 18:22:54 0° 175° (S) 2,893 7.0 -19.1°
Reaches altitude 10° 18:25:09 10° 171° (S) 1,987 6.1 -19.5°
Maximum altitude 18:29:27 55° 94° (E) 750 3.6 -20.2°
Enters shadow 18:30:43 39° 42° (NE) 928 4.1 -20.4°
Exits shadow 18:35:38 - 14° (NNE) 2,742 6.8 -21.3°
Sets 18:36:00 0° 13° (NNE) 2,891 6.9 -21.4°
